Date,TemperatureHighF,TemperatureAvgF,TemperatureLowF,DewpointHighF,DewpointAvgF,DewpointLowF,HumidityHigh,HumidityAvg,HumidityLow,PressureMaxIn,PressureMinIn,WindSpeedMaxMPH,WindSpeedAvgMPH,GustSpeedMaxMPH,PrecipitationSumIn
2013-1-1,57,51,37,-100,-100,-100,0,0,100,0.00,40.00,0,-999,0,0.00
2013-1-2,59,52,44,-100,-100,-100,0,0,100,0.00,40.00,0,-999,0,0.00
2013-1-3,67,51,40,-100,-100,-100,0,0,100,0.00,40.00,0,-999,0,0.00
2013-1-4,62,50,42,-100,-100,-100,0,0,100,0.00,40.00,0,-999,0,0.00
2013-1-5,59,50,40,-100,-100,-100,0,0,100,0.00,40.00,0,-999,0,0.00
2013-1-6,51,46,39,-100,-100,-100,0,0,100,0.00,40.00,0,-999,0,0.00
2013-1-7,57,48,36,-100,-100,-100,0,0,100,0.00,40.00,0,-999,0,0.00
2013-1-8,67,54,44,-100,-100,-100,0,0,100,0.00,40.00,0,-999,0,0.00
2013-1-9,55,49,41,-100,-100,-100,0,0,100,0.00,40.00,0,-999,0,0.00
2013-1-10,54,48,44,-100,-100,-100,0,0,100,0.00,40.00,0,-999,0,0.00
2013-1-11,52,42,31,-100,-100,-100,0,0,100,0.00,40.00,0,-999,0,0.00
2013-1-12,53,43,32,-100,-100,-100,0,0,100,0.00,40.00,0,-999,0,0.00
2013-1-13,52,45,35,-100,-100,-100,0,0,100,0.00,40.00,0,-999,0,0.00
2013-1-14,52,42,36,-100,-100,-100,0,0,100,0.00,40.00,0,-999,0,0.00
2013-1-15,54,46,36,-100,-100,-100,0,0,100,0.00,40.00,0,-999,0,0.00
2013-1-16,66,53,34,-100,-100,-100,0,0,100,0.00,40.00,0,-999,0,0.00
2013-1-17,76,61,41,-100,-100,-100,0,0,100,0.00,40.00,0,-999,0,0.00
2013-1-18,75,62,54,-100,-100,-100,0,0,100,0.00,40.00,0,-999,0,0.00
2013-1-19,76,64,54,-100,-100,-100,0,0,100,0.00,40.00,0,-999,0,0.00
2013-1-20,77,64,47,-100,-100,-100,0,0,100,0.00,40.00,0,-999,0,0.00
2013-1-21,78,66,47,-100,-100,-100,0,0,100,0.00,40.00,0,-999,0,0.00
2013-1-22,77,61,51,-100,-100,-100,0,0,100,0.00,40.00,0,-999,0,0.00
2013-1-23,66,59,54,-100,-100,-100,0,0,100,0.00,40.00,0,-999,0,0.00
2013-1-24,60,55,49,-100,-100,-100,0,0,100,0.00,40.00,0,-999,0,0.00
2013-1-25,58,56,54,-100,-100,-100,0,0,100,0.00,40.00,0,-999,0,0.00
2013-1-26,61,55,52,-100,-100,-100,0,0,100,0.00,40.00,0,-999,0,0.00
2013-1-27,58,53,48,-100,-100,-100,0,0,100,0.00,40.00,0,-999,0,0.00
2013-1-28,56,47,35,-100,-100,-100,0,0,100,0.00,40.00,0,-999,0,0.00
2013-1-29,54,46,38,-100,-100,-100,0,0,100,0.00,40.00,0,-999,0,0.00
2013-1-30,60,49,38,-100,-100,-100,0,0,100,0.00,40.00,0,-999,0,0.00
2013-1-31,64,54,43,-100,-100,-100,0,0,100,0.00,40.00,0,-999,0,0.00
2013-2-1,65,56,51,-100,-100,-100,0,0,100,0.00,40.00,0,-999,0,0.00
2013-2-2,67,61,53,-100,-100,-100,0,0,100,0.00,40.00,0,-999,0,0.00
2013-2-3,61,55,47,-100,-100,-100,0,0,100,0.00,40.00,0,-999,0,0.00
2013-2-4,59,51,40,-100,-100,-100,0,0,100,0.00,40.00,0,-999,0,0.00
2013-2-5,52,49,43,-100,-100,-100,0,0,100,0.00,40.00,0,-999,0,0.00
2013-2-6,58,51,45,-100,-100,-100,0,0,100,0.00,40.00,0,-999,0,0.00
2013-2-7,56,49,41,-100,-100,-100,0,0,100,0.00,40.00,0,-999,0,0.00
2013-2-8,50,46,40,-100,-100,-100,0,0,100,0.00,40.00,0,-999,0,0.00
2013-2-9,54,48,33,-100,-100,-100,0,0,100,0.00,40.00,0,-999,0,0.00
2013-2-10,54,48,36,-100,-100,-100,0,0,100,0.00,40.00,0,-999,0,0.00
2013-2-11,61,48,36,-100,-100,-100,0,0,100,0.00,40.00,0,-999,0,0.00
2013-2-12,58,48,37,-100,-100,-100,0,0,100,0.00,40.00,0,-999,0,0.00
2013-2-13,58,49,38,-100,-100,-100,0,0,100,0.00,40.00,0,-999,0,0.00
2013-2-14,62,51,40,-100,-100,-100,0,0,100,0.00,40.00,0,-999,0,0.00
2013-2-15,78,64,45,-100,-100,-100,0,0,100,0.00,40.00,0,-999,0,0.00
2013-2-16,76,67,52,-100,-100,-100,0,0,100,0.00,40.00,0,-999,0,0.00
2013-2-17,58,52,44,-100,-100,-100,0,0,100,0.00,40.00,0,-999,0,0.00
2013-2-18,57,51,46,-100,-100,-100,0,0,100,0.00,40.00,0,-999,0,0.00
2013-2-19,53,49,43,-100,-100,-100,0,0,100,0.00,40.00,0,-999,0,0.00
2013-2-20,58,50,40,-100,-100,-100,0,0,100,0.00,40.00,0,-999,0,0.00
2013-2-21,55,47,36,-100,-100,-100,0,0,100,0.00,40.00,0,-999,0,0.00
2013-2-22,58,50,40,-100,-100,-100,0,0,100,0.00,40.00,0,-999,0,0.00
2013-2-23,58,50,39,-100,-100,-100,0,0,100,0.00,40.00,0,-999,0,0.00
2013-2-24,65,55,42,-100,-100,-100,0,0,100,0.00,40.00,0,-999,0,0.00
2013-2-25,60,51,41,-100,-100,-100,0,0,100,0.00,40.00,0,-999,0,0.00
2013-2-26,64,50,36,-100,-100,-100,0,0,100,0.00,40.00,0,-999,0,0.00
2013-2-27,70,58,43,-100,-100,-100,0,0,100,0.00,40.00,0,-999,0,0.00
2013-2-28,69,56,45,-100,-100,-100,0,0,100,0.00,40.00,0,-999,0,0.00
2013-3-1,83,65,54,-100,-100,-100,0,0,100,0.00,40.00,0,-999,0,0.00
2013-3-2,72,63,52,-100,-100,-100,0,0,100,0.00,40.00,0,-999,0,0.00
2013-3-3,62,55,51,-100,-100,-100,0,0,100,0.00,40.00,0,-999,0,0.00
2013-3-4,58,51,44,-100,-100,-100,0,0,100,0.00,40.00,0,-999,0,0.00
2013-3-5,55,50,47,-100,-100,-100,0,0,100,0.00,40.00,0,-999,0,0.00
2013-3-6,53,49,43,-100,-100,-100,0,0,100,0.00,40.00,0,-999,0,0.00
2013-3-7,54,51,47,-100,-100,-100,0,0,100,0.00,40.00,0,-999,0,0.00
2013-3-8,54,48,42,-100,-100,-100,0,0,100,0.00,40.00,0,-999,0,0.00
2013-3-9,58,53,42,-100,-100,-100,0,0,100,0.00,40.00,0,-999,0,0.00
2013-3-10,64,57,45,-100,-100,-100,0,0,100,0.00,40.00,0,-999,0,0.00
2013-3-11,63,54,42,-100,-100,-100,0,0,100,0.00,40.00,0,-999,0,0.00
2013-3-12,62,54,43,-100,-100,-100,0,0,100,0.00,40.00,0,-999,0,0.00
2013-3-13,61,52,44,-100,-100,-100,0,0,100,0.00,40.00,0,-999,0,0.00
2013-3-14,58,51,45,-100,-100,-100,0,0,100,0.00,40.00,0,-999,0,0.00
2013-3-15,58,53,50,-100,-100,-100,0,0,100,0.00,40.00,0,-999,0,0.00
2013-3-16,54,51,48,-100,-100,-100,0,0,100,0.00,40.00,0,-999,0,0.00
2013-3-17,59,51,46,-100,-100,-100,0,0,100,0.00,40.00,0,-999,0,0.00
2013-3-18,58,51,45,-100,-100,-100,0,0,100,0.00,40.00,0,-999,0,0.00
2013-3-19,59,54,46,-100,-100,-100,0,0,100,0.00,40.00,0,-999,0,0.00
2013-3-20,60,56,51,-100,-100,-100,0,0,100,0.00,40.00,0,-999,0,0.00
2013-3-21,62,54,46,-100,-100,-100,0,0,100,0.00,40.00,0,-999,0,0.00
2013-3-22,64,55,44,-100,-100,-100,0,0,100,0.00,40.00,0,-999,0,0.00
2013-3-23,63,55,41,-100,-100,-100,0,0,100,0.00,40.00,0,-999,0,0.00
2013-3-24,62,55,42,-100,-100,-100,0,0,100,0.00,40.00,0,-999,0,0.00
2013-3-25,61,53,43,-100,-100,-100,0,0,100,0.00,40.00,0,-999,0,0.00
2013-3-26,60,53,45,-100,-100,-100,0,0,100,0.00,40.00,0,-999,0,0.00
2013-3-27,60,54,46,-100,-100,-100,0,0,100,0.00,40.00,0,-999,0,0.00
2013-3-28,58,53,48,-100,-100,-100,0,0,100,0.00,40.00,0,-999,0,0.00
2013-3-29,60,53,48,-100,-100,-100,0,0,100,0.00,40.00,0,-999,0,0.00
2013-3-30,59,55,51,-100,-100,-100,0,0,100,0.00,40.00,0,-999,0,0.00
2013-3-31,58,56,52,-100,-100,-100,0,0,100,0.00,40.00,0,-999,0,0.00
2013-4-1,58,54,50,-100,-100,-100,0,0,100,0.00,40.00,0,-999,0,0.00
2013-4-2,61,54,45,-100,-100,-100,0,0,100,0.00,40.00,0,-999,0,0.00
2013-4-3,61,55,50,-100,-100,-100,0,0,100,0.00,40.00,0,-999,0,0.00
2013-4-4,62,55,51,-100,-100,-100,0,0,100,0.00,40.00,0,-999,0,0.00
2013-4-5,62,57,52,-100,-100,-100,0,0,100,0.00,40.00,0,-999,0,0.00
2013-4-6,64,58,50,-100,-100,-100,0,0,100,0.00,40.00,0,-999,0,0.00
2013-4-7,68,60,48,-100,-100,-100,0,0,100,0.00,40.00,0,-999,0,0.00
2013-4-8,64,56,51,-100,-100,-100,0,0,100,0.00,40.00,0,-999,0,0.00
2013-4-9,65,55,43,-100,-100,-100,0,0,100,0.00,40.00,0,-999,0,0.00
2013-4-10,73,60,46,-100,-100,-100,0,0,100,0.00,40.00,0,-999,0,0.00
2013-4-11,61,54,44,-100,-100,-100,0,0,100,0.00,40.00,0,-999,0,0.00
2013-4-12,61,54,48,-100,-100,-100,0,0,100,0.00,40.00,0,-999,0,0.00
2013-4-13,57,53,49,-100,-100,-100,0,0,100,0.00,40.00,0,-999,0,0.00
2013-4-14,59,54,51,-100,-100,-100,0,0,100,0.00,40.00,0,-999,0,0.00
2013-4-15,58,53,50,-100,-100,-100,0,0,100,0.00,40.00,0,-999,0,0.00
2013-4-16,58,52,43,-100,-100,-100,0,0,100,0.00,40.00,0,-999,0,0.00
2013-4-17,62,55,41,-100,-100,-100,0,0,100,0.00,40.00,0,-999,0,0.00
2013-4-18,75,60,49,-100,-100,-100,0,0,100,0.00,40.00,0,-999,0,0.00
2013-4-19,72,60,49,-100,-100,-100,0,0,100,0.00,40.00,0,-999,0,0.00
2013-4-20,71,61,48,-100,-100,-100,0,0,100,0.00,40.00,0,-999,0,0.00
2013-4-21,69,59,50,-100,-100,-100,0,0,100,0.00,40.00,0,-999,0,0.00
2013-4-22,62,57,53,-100,-100,-100,0,0,100,0.00,40.00,0,-999,0,0.00
2013-4-23,62,57,53,-100,-100,-100,0,0,100,0.00,40.00,0,-999,0,0.00
2013-4-24,57,55,52,-100,-100,-100,0,0,100,0.00,40.00,0,-999,0,0.00
2013-4-25,64,57,49,-100,-100,-100,0,0,100,0.00,40.00,0,-999,0,0.00
2013-4-26,65,56,47,-100,-100,-100,0,0,100,0.00,40.00,0,-999,0,0.00
2013-4-27,64,57,47,-100,-100,-100,0,0,100,0.00,40.00,0,-999,0,0.00
2013-4-28,62,55,52,-100,-100,-100,0,0,100,0.00,40.00,0,-999,0,0.00
2013-4-29,60,55,51,-100,-100,-100,0,0,100,0.00,40.00,0,-999,0,0.00
2013-4-30,59,57,54,-100,-100,-100,0,0,100,0.00,40.00,0,-999,0,0.00
2013-5-1,65,60,55,-100,-100,-100,0,0,100,0.00,40.00,0,-999,0,0.00
2013-5-2,89,65,47,-100,-100,-100,0,0,100,0.00,40.00,0,-999,0,0.00
2013-5-3,85,69,53,-100,-100,-100,0,0,100,0.00,40.00,0,-999,0,0.00
2013-5-4,66,60,52,-100,-100,-100,0,0,100,0.00,40.00,0,-999,0,0.00
2013-5-5,59,57,54,-100,-100,-100,0,0,100,0.00,40.00,0,-999,0,0.00
2013-5-6,63,59,53,-100,-100,-100,0,0,100,0.00,40.00,0,-999,0,0.00
2013-5-7,65,58,54,-100,-100,-100,0,0,100,0.00,40.00,0,-999,0,0.00
2013-5-8,65,58,51,-100,-100,-100,0,0,100,0.00,40.00,0,-999,0,0.00
2013-5-9,65,57,49,-100,-100,-100,0,0,100,0.00,40.00,0,-999,0,0.00
2013-5-10,68,59,51,-100,-100,-100,0,0,100,0.00,40.00,0,-999,0,0.00
2013-5-11,66,61,53,-100,-100,-100,0,0,100,0.00,40.00,0,-999,0,0.00
2013-5-12,70,63,55,-100,-100,-100,0,0,100,0.00,40.00,0,-999,0,0.00
2013-5-13,67,62,55,-100,-100,-100,0,0,100,0.00,40.00,0,-999,0,0.00
2013-5-14,62,57,54,-100,-100,-100,0,0,100,0.00,40.00,0,-999,0,0.00
2013-5-15,63,57,50,-100,-100,-100,0,0,100,0.00,40.00,0,-999,0,0.00
2013-5-16,65,58,50,-100,-100,-100,0,0,100,0.00,40.00,0,-999,0,0.00
2013-5-17,65,58,51,-100,-100,-100,0,0,100,0.00,40.00,0,-999,0,0.00
2013-5-18,65,60,50,-100,-100,-100,0,0,100,0.00,40.00,0,-999,0,0.00
2013-5-19,67,61,47,-100,-100,-100,0,0,100,0.00,40.00,0,-999,0,0.00
2013-5-20,68,62,51,-100,-100,-100,0,0,100,0.00,40.00,0,-999,0,0.00
2013-5-21,67,61,55,-100,-100,-100,0,0,100,0.00,40.00,0,-999,0,0.00
2013-5-22,65,59,53,-100,-100,-100,0,0,100,0.00,40.00,0,-999,0,0.00
2013-5-23,65,57,51,-100,-100,-100,0,0,100,0.00,40.00,0,-999,0,0.00
2013-5-24,63,58,48,-100,-100,-100,0,0,100,0.00,40.00,0,-999,0,0.00
2013-5-25,63,58,47,-100,-100,-100,0,0,100,0.00,40.00,0,-999,0,0.00
2013-5-26,65,60,48,-100,-100,-100,0,0,100,0.00,40.00,0,-999,0,0.00
2013-5-27,67,61,51,-100,-100,-100,0,0,100,0.00,40.00,0,-999,0,0.00
2013-5-28,69,62,53,-100,-100,-100,0,0,100,0.00,40.00,0,-999,0,0.00
2013-5-29,69,61,53,-100,-100,-100,0,0,100,0.00,40.00,0,-999,0,0.00
2013-5-30,69,61,53,-100,-100,-100,0,0,100,0.00,40.00,0,-999,0,0.00
2013-5-31,67,62,57,-100,-100,-100,0,0,100,0.00,40.00,0,-999,0,0.00
2013-6-1,66,62,58,-100,-100,-100,0,0,100,0.00,40.00,0,-999,0,0.00
2013-6-2,63,60,58,-100,-100,-100,0,0,100,0.00,40.00,0,-999,0,0.00
2013-6-3,65,61,56,-100,-100,-100,0,0,100,0.00,40.00,0,-999,0,0.00
2013-6-4,65,60,57,-100,-100,-100,0,0,100,0.00,40.00,0,-999,0,0.00
2013-6-5,63,57,52,-100,-100,-100,0,0,100,0.00,40.00,0,-999,0,0.00
2013-6-6,62,58,54,-100,-100,-100,0,0,100,0.00,40.00,0,-999,0,0.00
2013-6-7,65,58,55,-100,-100,-100,0,0,100,0.00,40.00,0,-999,0,0.00
2013-6-8,61,59,57,-100,-100,-100,0,0,100,0.00,40.00,0,-999,0,0.00
2013-6-9,61,59,57,-100,-100,-100,0,0,100,0.00,40.00,0,-999,0,0.00
2013-6-10,69,63,58,-100,-100,-100,0,0,100,0.00,40.00,0,-999,0,0.00
2013-6-11,69,61,55,-100,-100,-100,0,0,100,0.00,40.00,0,-999,0,0.00
2013-6-12,63,59,57,-100,-100,-100,0,0,100,0.00,40.00,0,-999,0,0.00
2013-6-13,65,61,57,-100,-100,-100,0,0,100,0.00,40.00,0,-999,0,0.00
2013-6-14,66,60,52,-100,-100,-100,0,0,100,0.00,40.00,0,-999,0,0.00
2013-6-15,65,59,55,-100,-100,-100,0,0,100,0.00,40.00,0,-999,0,0.00
2013-6-16,65,61,57,-100,-100,-100,0,0,100,0.00,40.00,0,-999,0,0.00
2013-6-17,66,61,54,-100,-100,-100,0,0,100,0.00,40.00,0,-999,0,0.00
2013-6-18,67,61,53,-100,-100,-100,0,0,100,0.00,40.00,0,-999,0,0.00
2013-6-19,72,61,51,-100,-100,-100,0,0,100,0.00,40.00,0,-999,0,0.00
2013-6-20,69,59,51,-100,-100,-100,0,0,100,0.00,40.00,0,-999,0,0.00
2013-6-22,68,64,58,-100,-100,-100,0,0,100,0.00,40.00,0,-999,0,0.00
2013-6-23,65,61,56,-100,-100,-100,0,0,100,0.00,40.00,0,-999,0,0.00
2013-6-24,67,62,54,-100,-100,-100,0,0,100,0.00,40.00,0,-999,0,0.00
2013-6-25,65,62,58,-100,-100,-100,0,0,100,0.00,40.00,0,-999,0,0.00
2013-6-26,72,64,58,-100,-100,-100,0,0,100,0.00,40.00,0,-999,0,0.00
2013-6-27,76,66,61,-100,-100,-100,0,0,100,0.00,40.00,0,-999,0,0.00
2013-6-28,75,66,58,-100,-100,-100,0,0,100,0.00,40.00,0,-999,0,0.00
2013-6-29,77,71,59,-100,-100,-100,0,0,100,0.00,40.00,0,-999,0,0.00
2013-6-30,79,69,62,-100,-100,-100,0,0,100,0.00,40.00,0,-999,0,0.00
2013-7-1,72,67,63,-100,-100,-100,0,0,100,0.00,40.00,0,-999,0,0.00
2013-7-2,69,65,61,-100,-100,-100,0,0,100,0.00,40.00,0,-999,0,0.00
2013-7-3,69,62,59,-100,-100,-100,0,0,100,0.00,40.00,0,-999,0,0.00
2013-7-4,69,64,58,-100,-100,-100,0,0,100,0.00,40.00,0,-999,0,0.00
2013-7-5,69,64,62,-100,-100,-100,0,0,100,0.00,40.00,0,-999,0,0.00
2013-7-6,67,63,60,-100,-100,-100,0,0,100,0.00,40.00,0,-999,0,0.00
2013-7-7,68,64,58,-100,-100,-100,0,0,100,0.00,40.00,0,-999,0,0.00
2013-7-8,68,61,57,-100,-100,-100,0,0,100,0.00,40.00,0,-999,0,0.00
2013-7-9,73,63,57,-100,-100,-100,0,0,100,0.00,40.00,0,-999,0,0.00
2013-7-10,71,63,58,-100,-100,-100,0,0,100,0.00,40.00,0,-999,0,0.00
2013-7-11,69,65,60,-100,-100,-100,0,0,100,0.00,40.00,0,-999,0,0.00
2013-7-12,68,61,58,-100,-100,-100,0,0,100,0.00,40.00,0,-999,0,0.00
2013-7-13,66,63,58,-100,-100,-100,0,0,100,0.00,40.00,0,-999,0,0.00
2013-7-14,69,64,55,-100,-100,-100,0,0,100,0.00,40.00,0,-999,0,0.00
2013-7-15,69,62,56,-100,-100,-100,0,0,100,0.00,40.00,0,-999,0,0.00
2013-7-16,69,62,52,-100,-100,-100,0,0,100,0.00,40.00,0,-999,0,0.00
2013-7-17,69,62,52,-100,-100,-100,0,0,100,0.00,40.00,0,-999,0,0.00
2013-7-18,69,61,53,-100,-100,-100,0,0,100,0.00,40.00,0,-999,0,0.00
2013-7-19,67,62,54,-100,-100,-100,0,0,100,0.00,40.00,0,-999,0,0.00
2013-7-20,69,62,56,-100,-100,-100,0,0,100,0.00,40.00,0,-999,0,0.00
2013-7-21,65,62,60,-100,-100,-100,0,0,100,0.00,40.00,0,-999,0,0.00
2013-7-22,69,65,60,-100,-100,-100,0,0,100,0.00,40.00,0,-999,0,0.00
2013-7-23,67,62,58,-100,-100,-100,0,0,100,0.00,40.00,0,-999,0,0.00
2013-7-24,63,59,57,-100,-100,-100,0,0,100,0.00,40.00,0,-999,0,0.00
2013-7-25,64,60,57,-100,-100,-100,0,0,100,0.00,40.00,0,-999,0,0.00
2013-7-26,67,60,57,-100,-100,-100,0,0,100,0.00,40.00,0,-999,0,0.00
2013-7-27,66,61,56,-100,-100,-100,0,0,100,0.00,40.00,0,-999,0,0.00
2013-7-28,62,59,54,-100,-100,-100,0,0,100,0.00,40.00,0,-999,0,0.00
2013-7-29,67,61,57,-100,-100,-100,0,0,100,0.00,40.00,0,-999,0,0.00
2013-7-30,65,60,57,-100,-100,-100,0,0,100,0.00,40.00,0,-999,0,0.00
2013-7-31,65,59,56,-100,-100,-100,0,0,100,0.00,40.00,0,-999,0,0.00
2013-8-1,65,61,56,-100,-100,-100,0,0,100,0.00,40.00,0,-999,0,0.00
2013-8-2,68,61,52,-100,-100,-100,0,0,100,0.00,40.00,0,-999,0,0.00
2013-8-3,65,61,57,-100,-100,-100,0,0,100,0.00,40.00,0,-999,0,0.00
2013-8-4,65,60,55,-100,-100,-100,0,0,100,0.00,40.00,0,-999,0,0.00
2013-8-5,65,59,52,-100,-100,-100,0,0,100,0.00,40.00,0,-999,0,0.00
2013-8-6,65,60,56,-100,-100,-100,0,0,100,0.00,40.00,0,-999,0,0.00
2013-8-7,65,59,54,-100,-100,-100,0,0,100,0.00,40.00,0,-999,0,0.00
2013-8-8,65,60,55,-100,-100,-100,0,0,100,0.00,40.00,0,-999,0,0.00
2013-8-9,66,61,56,-100,-100,-100,0,0,100,0.00,40.00,0,-999,0,0.00
2013-8-10,68,62,56,-100,-100,-100,0,0,100,0.00,40.00,0,-999,0,0.00
2013-8-11,66,62,58,-100,-100,-100,0,0,100,0.00,40.00,0,-999,0,0.00
2013-8-12,67,61,58,-100,-100,-100,0,0,100,0.00,40.00,0,-999,0,0.00
2013-8-13,67,61,58,-100,-100,-100,0,0,100,0.00,40.00,0,-999,0,0.00
2013-8-14,65,60,57,-100,-100,-100,0,0,100,0.00,40.00,0,-999,0,0.00
2013-8-15,68,61,56,-100,-100,-100,0,0,100,0.00,40.00,0,-999,0,0.00
2013-8-16,67,61,57,-100,-100,-100,0,0,100,0.00,40.00,0,-999,0,0.00
2013-8-17,66,61,57,-100,-100,-100,0,0,100,0.00,40.00,0,-999,0,0.00
2013-8-18,68,60,54,-100,-100,-100,0,0,100,0.00,40.00,0,-999,0,0.00
2013-8-19,67,61,57,-100,-100,-100,0,0,100,0.00,40.00,0,-999,0,0.00
2013-8-20,67,61,57,-100,-100,-100,0,0,100,0.00,40.00,0,-999,0,0.00
2013-8-21,69,61,54,-100,-100,-100,0,0,100,0.00,40.00,0,-999,0,0.00
2013-8-22,72,64,54,-100,-100,-100,0,0,100,0.00,40.00,0,-999,0,0.00
2013-8-23,71,63,54,-100,-100,-100,0,0,100,0.00,40.00,0,-999,0,0.00
2013-8-24,69,64,54,-100,-100,-100,0,0,100,0.00,40.00,0,-999,0,0.00
2013-8-25,69,62,54,-100,-100,-100,0,0,100,0.00,40.00,0,-999,0,0.00
2013-8-26,73,61,52,-100,-100,-100,0,0,100,0.00,40.00,0,-999,0,0.00
2013-8-27,69,64,60,-100,-100,-100,0,0,100,0.00,40.00,0,-999,0,0.00
2013-8-28,70,65,60,-100,-100,-100,0,0,100,0.00,40.00,0,-999,0,0.00
2013-8-29,75,65,58,-100,-100,-100,0,0,100,0.00,40.00,0,-999,0,0.00
2013-8-30,84,72,60,-100,-100,-100,0,0,100,0.00,40.00,0,-999,0,0.00
2013-8-31,83,76,69,-100,-100,-100,0,0,100,0.00,40.00,0,-999,0,0.00
2013-9-1,75,69,65,-100,-100,-100,0,0,100,0.00,40.00,0,-999,0,0.00
2013-9-2,74,68,62,-100,-100,-100,0,0,100,0.00,40.00,0,-999,0,0.00
2013-9-3,78,69,62,-100,-100,-100,0,0,100,0.00,40.00,0,-999,0,0.00
2013-9-4,73,67,62,-100,-100,-100,0,0,100,0.00,40.00,0,-999,0,0.00
2013-9-5,75,66,60,-100,-100,-100,0,0,100,0.00,40.00,0,-999,0,0.00
2013-9-6,75,66,60,-100,-100,-100,0,0,100,0.00,40.00,0,-999,0,0.00
2013-9-7,69,63,58,-100,-100,-100,0,0,100,0.00,40.00,0,-999,0,0.00
2013-9-8,67,62,57,-100,-100,-100,0,0,100,0.00,40.00,0,-999,0,0.00
2013-9-9,63,59,56,-100,-100,-100,0,0,100,0.00,40.00,0,-999,0,0.00
2013-9-10,67,62,58,-100,-100,-100,0,0,100,0.00,40.00,0,-999,0,0.00
2013-9-11,69,63,57,-100,-100,-100,0,0,100,0.00,40.00,0,-999,0,0.00
2013-9-12,71,63,54,-100,-100,-100,0,0,100,0.00,40.00,0,-999,0,0.00
2013-9-13,72,63,54,-100,-100,-100,0,0,100,0.00,40.00,0,-999,0,0.00
2013-9-14,70,65,57,-100,-100,-100,0,0,100,0.00,40.00,0,-999,0,0.00
2013-9-15,70,66,58,-100,-100,-100,0,0,100,0.00,40.00,0,-999,0,0.00
2013-9-16,69,61,54,-100,-100,-100,0,0,100,0.00,40.00,0,-999,0,0.00
2013-9-17,68,60,54,-100,-100,-100,0,0,100,0.00,40.00,0,-999,0,0.00
2013-9-18,62,60,54,-100,-100,-100,0,0,100,0.00,40.00,0,-999,0,0.00
2013-9-19,68,61,54,-100,-100,-100,0,0,100,0.00,40.00,0,-999,0,0.00
2013-9-20,66,62,61,-100,-100,-100,0,0,100,0.00,40.00,0,-999,0,0.00
2013-9-21,69,63,58,-100,-100,-100,0,0,100,0.00,40.00,0,-999,0,0.00
2013-9-22,71,63,54,-100,-100,-100,0,0,100,0.00,40.00,0,-999,0,0.00
2013-9-23,77,66,53,-100,-100,-100,0,0,100,0.00,40.00,0,-999,0,0.00
2013-9-24,77,65,55,-100,-100,-100,0,0,100,0.00,40.00,0,-999,0,0.00
2013-9-25,68,60,52,-100,-100,-100,0,0,100,0.00,40.00,0,-999,0,0.00
2013-9-26,69,60,54,-100,-100,-100,0,0,100,0.00,40.00,0,-999,0,0.00
2013-9-27,76,66,48,-100,-100,-100,0,0,100,0.00,40.00,0,-999,0,0.00
2013-9-28,76,68,58,-100,-100,-100,0,0,100,0.00,40.00,0,-999,0,0.00
2013-9-29,74,65,54,-100,-100,-100,0,0,100,0.00,40.00,0,-999,0,0.00
2013-9-30,72,62,51,-100,-100,-100,0,0,100,0.00,40.00,0,-999,0,0.00
2013-10-1,68,62,59,-100,-100,-100,0,0,100,0.00,40.00,0,-999,0,0.00
2013-10-2,69,61,54,-100,-100,-100,0,0,100,0.00,40.00,0,-999,0,0.00
2013-10-3,65,60,53,-100,-100,-100,0,0,100,0.00,40.00,0,-999,0,0.00
2013-10-4,83,72,50,-100,-100,-100,0,0,100,0.00,40.00,0,-999,0,0.00
2013-10-5,87,79,68,-100,-100,-100,0,0,100,0.00,40.00,0,-999,0,0.00
2013-10-6,88,74,62,-100,-100,-100,0,0,100,0.00,40.00,0,-999,0,0.00
2013-10-7,71,61,55,-100,-100,-100,0,0,100,0.00,40.00,0,-999,0,0.00
2013-10-8,65,57,48,-100,-100,-100,0,0,100,0.00,40.00,0,-999,0,0.00
2013-10-9,60,57,54,-100,-100,-100,0,0,100,0.00,40.00,0,-999,0,0.00
2013-10-10,62,54,44,-100,-100,-100,0,0,100,0.00,40.00,0,-999,0,0.00
2013-10-11,64,56,47,-100,-100,-100,0,0,100,0.00,40.00,0,-999,0,0.00
2013-10-12,65,59,47,-100,-100,-100,0,0,100,0.00,40.00,0,-999,0,0.00
2013-10-13,65,58,47,-100,-100,-100,0,0,100,0.00,40.00,0,-999,0,0.00
2013-10-14,69,59,47,-100,-100,-100,0,0,100,0.00,40.00,0,-999,0,0.00
2013-10-15,83,70,55,-100,-100,-100,0,0,100,0.00,40.00,0,-999,0,0.00
2013-10-16,81,70,60,-100,-100,-100,0,0,100,0.00,40.00,0,-999,0,0.00
2013-10-17,74,62,54,-100,-100,-100,0,0,100,0.00,40.00,0,-999,0,0.00
2013-10-18,70,60,50,-100,-100,-100,0,0,100,0.00,40.00,0,-999,0,0.00
2013-10-19,69,62,55,-100,-100,-100,0,0,100,0.00,40.00,0,-999,0,0.00
2013-10-20,64,58,47,-100,-100,-100,0,0,100,0.00,40.00,0,-999,0,0.00
2013-10-21,65,57,49,-100,-100,-100,0,0,100,0.00,40.00,0,-999,0,0.00
2013-10-22,62,56,51,-100,-100,-100,0,0,100,0.00,40.00,0,-999,0,0.00
2013-10-23,63,57,52,-100,-100,-100,0,0,100,0.00,40.00,0,-999,0,0.00
2013-10-24,64,59,57,-100,-100,-100,0,0,100,0.00,40.00,0,-999,0,0.00
2013-10-25,63,56,53,-100,-100,-100,0,0,100,0.00,40.00,0,-999,0,0.00
2013-10-26,65,57,46,-100,-100,-100,0,0,100,0.00,40.00,0,-999,0,0.00
2013-10-27,64,56,46,-100,-100,-100,0,0,100,0.00,40.00,0,-999,0,0.00
2013-10-28,62,57,54,-100,-100,-100,0,0,100,0.00,40.00,0,-999,0,0.00
2013-10-29,62,55,47,-100,-100,-100,0,0,100,0.00,40.00,0,-999,0,0.00
2013-10-30,65,55,45,-100,-100,-100,0,0,100,0.00,40.00,0,-999,0,0.00
2013-10-31,69,58,48,-100,-100,-100,0,0,100,0.00,40.00,0,-999,0,0.00
2013-11-1,75,60,47,-100,-100,-100,0,0,100,0.00,40.00,0,-999,0,0.00
2013-11-2,73,64,54,-100,-100,-100,0,0,100,0.00,40.00,0,-999,0,0.00
2013-11-3,63,57,47,-100,-100,-100,0,0,100,0.00,40.00,0,-999,0,0.00
2013-11-4,64,58,52,-100,-100,-100,0,0,100,0.00,40.00,0,-999,0,0.00
2013-11-5,73,59,47,-100,-100,-100,0,0,100,0.00,40.00,0,-999,0,0.00
2013-11-6,79,63,51,-100,-100,-100,0,0,100,0.00,40.00,0,-999,0,0.00
2013-11-7,78,66,54,-100,-100,-100,0,0,100,0.00,40.00,0,-999,0,0.00
2013-11-8,68,59,51,-100,-100,-100,0,0,100,0.00,40.00,0,-999,0,0.00
2013-11-9,65,58,50,-100,-100,-100,0,0,100,0.00,40.00,0,-999,0,0.00
2013-11-10,73,58,47,-100,-100,-100,0,0,100,0.00,40.00,0,-999,0,0.00
2013-11-11,69,57,45,-100,-100,-100,0,0,100,0.00,40.00,0,-999,0,0.00
2013-11-12,73,60,52,-100,-100,-100,0,0,100,0.00,40.00,0,-999,0,0.00
2013-11-13,78,65,52,-100,-100,-100,0,0,100,0.00,40.00,0,-999,0,0.00
2013-11-14,73,62,56,-100,-100,-100,0,0,100,0.00,40.00,0,-999,0,0.00
2013-11-15,65,57,49,-100,-100,-100,0,0,100,0.00,40.00,0,-999,0,0.00
2013-11-16,62,57,49,-100,-100,-100,0,0,100,0.00,40.00,0,-999,0,0.00
2013-11-17,64,57,49,-100,-100,-100,0,0,100,0.00,40.00,0,-999,0,0.00
2013-11-18,61,54,47,-100,-100,-100,0,0,100,0.00,40.00,0,-999,0,0.00
2013-11-19,60,55,48,-100,-100,-100,0,0,100,0.00,40.00,0,-999,0,0.00
2013-11-20,62,56,51,-100,-100,-100,0,0,100,0.00,40.00,0,-999,0,0.00
2013-11-21,58,56,54,-100,-100,-100,0,0,100,0.00,40.00,0,-999,0,0.00
2013-11-22,60,55,52,-100,-100,-100,0,0,100,0.00,40.00,0,-999,0,0.00
2013-11-23,64,57,51,-100,-100,-100,0,0,100,0.00,40.00,0,-999,0,0.00
2013-11-24,66,57,51,-100,-100,-100,0,0,100,0.00,40.00,0,-999,0,0.00
2013-11-25,65,55,47,-100,-100,-100,0,0,100,0.00,40.00,0,-999,0,0.00
2013-11-26,66,57,47,-100,-100,-100,0,0,100,0.00,40.00,0,-999,0,0.00
2013-11-27,70,58,52,-100,-100,-100,0,0,100,0.00,40.00,0,-999,0,0.00
2013-11-28,65,56,48,-100,-100,-100,0,0,100,0.00,40.00,0,-999,0,0.00
2013-11-29,68,58,50,-100,-100,-100,0,0,100,0.00,40.00,0,-999,0,0.00
2013-11-30,68,59,50,-100,-100,-100,0,0,100,0.00,40.00,0,-999,0,0.00
2013-12-1,73,63,53,-100,-100,-100,0,0,100,0.00,40.00,0,-999,0,0.00
2013-12-2,69,58,50,-100,-100,-100,0,0,100,0.00,40.00,0,-999,0,0.00
2013-12-3,60,53,43,-100,-100,-100,0,0,100,0.00,40.00,0,-999,0,0.00
2013-12-4,57,47,39,-100,-100,-100,0,0,100,0.00,40.00,0,-999,0,0.00
2013-12-5,56,46,39,-100,-100,-100,0,0,100,0.00,40.00,0,-999,0,0.00
2013-12-6,55,45,36,-100,-100,-100,0,0,100,0.00,40.00,0,-999,0,0.00
2013-12-7,54,43,37,-100,-100,-100,0,0,100,0.00,40.00,0,-999,0,0.00
2013-12-8,51,44,34,-100,-100,-100,0,0,100,0.00,40.00,0,-999,0,0.00
2013-12-9,54,48,38,-100,-100,-100,0,0,100,0.00,40.00,0,-999,0,0.00
2013-12-10,63,52,43,-100,-100,-100,0,0,100,0.00,40.00,0,-999,0,0.00
2013-12-11,71,54,47,-100,-100,-100,0,0,100,0.00,40.00,0,-999,0,0.00
2013-12-12,62,53,43,-100,-100,-100,0,0,100,0.00,40.00,0,-999,0,0.00
2013-12-13,58,47,38,-100,-100,-100,0,0,100,0.00,40.00,0,-999,0,0.00
2013-12-14,72,62,41,-100,-100,-100,0,0,100,0.00,40.00,0,-999,0,0.00
2013-12-15,73,62,47,-100,-100,-100,0,0,100,0.00,40.00,0,-999,0,0.00
2013-12-16,76,64,57,-100,-100,-100,0,0,100,0.00,40.00,0,-999,0,0.00
2013-12-17,74,64,58,-100,-100,-100,0,0,100,0.00,40.00,0,-999,0,0.00
2013-12-18,62,55,52,-100,-100,-100,0,0,100,0.00,40.00,0,-999,0,0.00
2013-12-19,54,51,45,-100,-100,-100,0,0,100,0.00,40.00,0,-999,0,0.00
2013-12-20,62,50,40,-100,-100,-100,0,0,100,0.00,40.00,0,-999,0,0.00
2013-12-21,58,51,40,-100,-100,-100,0,0,100,0.00,40.00,0,-999,0,0.00
2013-12-22,61,51,42,-100,-100,-100,0,0,100,0.00,40.00,0,-999,0,0.00
2013-12-23,65,53,44,-100,-100,-100,0,0,100,0.00,40.00,0,-999,0,0.00
2013-12-24,73,58,50,-100,-100,-100,0,0,100,0.00,40.00,0,-999,0,0.00
2013-12-25,77,69,59,-100,-100,-100,0,0,100,0.00,40.00,0,-999,0,0.00
2013-12-26,79,63,51,-100,-100,-100,0,0,100,0.00,40.00,0,-999,0,0.00
2013-12-27,76,60,49,-100,-100,-100,0,0,100,0.00,40.00,0,-999,0,0.00
2013-12-28,65,57,48,-100,-100,-100,0,0,100,0.00,40.00,0,-999,0,0.00
2013-12-29,73,61,40,-100,-100,-100,0,0,100,0.00,40.00,0,-999,0,0.00
2013-12-30,65,55,47,-100,-100,-100,0,0,100,0.00,40.00,0,-999,0,0.00
2013-12-31,61,52,43,-100,-100,-100,0,0,100,0.00,40.00,0,-999,0,0.00
2014-1-1,63,53,40,-100,-100,-100,0,0,100,0.00,40.00,0,-999,0,0.00
2014-1-2,73,61,53,-100,-100,-100,0,0,100,0.00,40.00,0,-999,0,0.00